FW3861 Weather Reports


Display with metric or nautical units.
time (UTC)temp
F
wind
direction
speed
MPH
gust
MPH
rain 1hr
in
rain 24hr
in
rain mn
in
humidity
%
barometer
mb
20260502152018 55 103 0.0 1.0 0.00 0.03 0.03 78 1013.2
20260502150903 54 157 0.0 2.0 0.00 0.03 0.03 80 1013.3
20260502122703 52 95 0.0 1.0 0.00 0.03 0.03 90 1013.3
20260502121803 51 202 0.0 3.0 0.00 0.03 0.03 93 1013.5
20260502120903 51 87 0.0 1.0 0.00 0.03 0.03 94 1013.2
20260502115403 51 123 0.0 1.0 0.00 0.03 0.03 95 1013.4
20260502114503 51 80 0.0 2.0 0.00 0.03 0.03 95 1013.6
20260502113603 51 194 0.0 2.0 0.00 0.03 0.03 95 1013.7
20260502112703 51 175 0.0 1.0 0.01 0.03 0.03 95 1013.4
20260502111803 51 166 0.0 1.0 0.03 0.03 0.03 94 1013.1
20260502110903 50 168 0.0 1.0 0.03 0.03 0.03 95 1013.0
20260502110003 50 0 0.0 0.0 0.03 0.03 0.03 95 1013.0
20260502105617 50 0 0.0 0.0 0.03 0.03 0.03 95 1012.8
20260502104503 50 116 0.0 1.0 0.03 0.03 0.03 94 1012.4
20260502103603 50 109 0.0 1.0 0.03 0.03 0.03 93 1012.5
20260502102703 50 187 0.0 2.0 0.02 0.02 0.02 92 1012.8
20260502101803 50 173 0.0 2.0 0.00 0.00 0.00 91 1012.9
20260502100903 51 181 0.0 2.0 0.00 0.00 0.00 92 1012.8
20260502090904 51 199 3.0 7.0 0.00 0.00 0.00 88 1012.8
20260502070903 51 194 2.0 6.0 0.00 0.00 0.00 86 1012.9
20260502070218 51 199 2.0 6.0 0.00 0.00 0.00 86 1013.0
20260502065403 51 198 3.0 6.0 0.00 0.00 0.00 85 1013.0
20260502064503 51 197 2.0 7.0 0.00 0.00 0.00 85 1013.2
20260502063603 51 214 3.0 7.0 0.00 0.00 0.00 84 1013.2
20260502062703 51 198 3.0 7.0 0.00 0.00 0.00 85 1013.3
20260502061803 52 204 3.0 8.0 0.00 0.00 0.00 84 1013.3
20260502061121 52 203 3.0 6.0 0.00 0.00 0.00 84 1013.3
20260502060004 51 196 2.0 7.0 0.00 0.00 0.00 84 1013.6
20260502055403 51 189 2.0 6.0 0.00 0.00 0.00 83 1013.3
20260502054503 51 196 2.0 7.0 0.00 0.00 0.00 83 1013.5
20260502053603 51 203 2.0 7.0 0.00 0.00 0.00 83 1013.3
20260502052703 51 186 2.0 3.0 0.00 0.00 0.00 82 1013.0
20260502051803 51 186 2.0 4.0 0.00 0.00 0.00 82 1013.0
20260502051117 51 189 2.0 4.0 0.00 0.00 0.00 82 1013.1
20260502050003 52 184 2.0 4.0 0.00 0.00 0.00 80 1013.3
20260502045403 52 174 1.0 3.0 0.00 0.00 0.00 80 1013.2
20260502044718 52 183 2.0 3.0 0.00 0.00 0.00 80 1013.2
20260502043603 52 187 2.0 6.0 0.00 0.00 0.00 78 1013.3
20260502042703 52 192 2.0 6.0 0.00 0.00 0.00 79 1013.3
20260502041803 52 193 3.0 7.0 0.00 0.00 0.00 79 1013.6
20260502041117 52 193 4.0 6.0 0.00 0.00 0.00 79 1013.3
20260502040004 52 197 3.0 7.0 0.00 0.00 0.00 78 1013.2
20260502035403 52 200 3.0 6.0 0.00 0.00 0.00 79 1013.5
20260502034503 52 196 3.0 8.0 0.00 0.00 0.00 79 1013.2
20260502033603 53 195 3.0 7.0 0.00 0.00 0.00 79 1013.2
20260502032918 53 194 3.0 6.0 0.00 0.00 0.00 80 1013.1
20260502031803 53 195 3.0 7.0 0.00 0.00 0.00 82 1013.2
20260502030903 53 194 4.0 7.0 0.00 0.00 0.00 82 1013.6
20260502030003 53 194 4.0 8.0 0.00 0.00 0.00 81 1013.4
20260502025403 53 194 4.0 8.0 0.00 0.00 0.00 82 1013.4
20260502024719 53 190 5.0 10.0 0.00 0.00 0.00 82 1013.6
20260502023603 52 188 4.0 9.0 0.00 0.00 0.00 84 1013.7
20260502022703 52 182 4.0 8.0 0.00 0.00 0.00 83 1013.5
20260502021803 52 177 4.0 8.0 0.00 0.00 0.00 84 1013.4
20260502020903 52 180 4.0 9.0 0.00 0.00 0.00 85 1013.4
20260502020221 52 188 4.0 9.0 0.00 0.00 0.00 84 1013.4
20260502015403 52 177 4.0 10.0 0.00 0.00 0.00 85 1013.4
20260502014503 52 183 4.0 8.0 0.00 0.00 0.00 85 1013.4
20260502013603 52 176 4.0 8.0 0.00 0.00 0.00 85 1013.3
20260502012703 52 173 4.0 9.0 0.00 0.00 0.00 85 1013.3
20260502011803 52 179 4.0 8.0 0.00 0.00 0.00 84 1013.2
20260502010903 52 181 4.0 9.0 0.00 0.00 0.00 83 1013.3
20260502010004 52 180 4.0 9.0 0.00 0.00 0.00 82 1012.9
20260502005403 52 177 4.0 8.0 0.00 0.00 0.00 82 1013.0
20260502004503 52 181 4.0 8.0 0.00 0.00 0.00 81 1013.1
20260502003603 52 175 3.0 7.0 0.00 0.00 0.00 79 1013.3
20260502002703 53 183 4.0 9.0 0.00 0.00 0.00 77 1013.1
20260502001803 53 178 4.0 8.0 0.00 0.00 0.00 77 1013.1
20260502000903 53 172 4.0 8.0 0.00 0.00 0.00 78 1012.9
20260502000218 53 181 4.0 8.0 0.00 0.00 0.00 80 1013.0
20260501235403 53 178 4.0 8.0 0.00 0.00 0.00 79 1012.7
20260501234503 53 172 4.0 8.0 0.00 0.00 0.00 78 1012.6
20260501233603 52 162 3.0 7.0 0.00 0.00 0.00 79 1012.6
20260501232921 53 167 3.0 7.0 0.00 0.00 0.00 80 1012.3
20260501232018 53 170 4.0 8.0 0.00 0.00 0.00 79 1012.6
20260501230903 53 174 4.0 8.0 0.00 0.00 0.00 78 1012.3
20260501230003 53 164 3.0 6.0 0.00 0.00 0.00 77 1012.4
20260501225403 54 170 3.0 7.0 0.00 0.00 0.00 77 1012.5
20260501224503 54 174 4.0 9.0 0.00 0.00 0.00 76 1012.6
20260501223603 54 179 4.0 9.0 0.00 0.00 0.00 75 1012.5
20260501222916 54 179 3.0 11.0 0.00 0.00 0.00 74 1012.5
20260501222019 54 177 4.0 8.0 0.00 0.00 0.00 76 1012.5
20260501220903 54 173 4.0 9.0 0.00 0.00 0.00 75 1012.7
20260501220003 54 181 4.0 10.0 0.00 0.00 0.00 74 1012.4
20260501215620 54 185 5.0 8.0 0.00 0.00 0.00 73 1012.5
20260501214503 55 169 4.0 9.0 0.00 0.00 0.00 71 1012.6
20260501213603 55 179 4.0 9.0 0.00 0.00 0.00 71 1012.5
20260501212703 55 172 4.0 8.0 0.00 0.00 0.00 71 1012.3
20260501211803 55 181 4.0 10.0 0.00 0.00 0.00 70 1012.5
20260501210903 55 183 4.0 13.0 0.00 0.00 0.00 69 1012.4
20260501210219 55 181 5.0 13.0 0.00 0.00 0.00 68 1012.6
20260501205403 55 186 5.0 10.0 0.00 0.00 0.00 67 1012.7
20260501204503 56 188 5.0 10.0 0.00 0.00 0.00 64 1012.5
20260501203603 55 198 5.0 11.0 0.00 0.00 0.00 64 1012.6
20260501202703 55 190 6.0 11.0 0.00 0.00 0.00 64 1012.4
20260501201803 57 184 5.0 10.0 0.00 0.00 0.00 65 1012.5
20260501200903 57 180 4.0 9.0 0.00 0.00 0.00 61 1012.5
20260501200003 58 185 4.0 9.0 0.00 0.00 0.00 58 1012.4
20260501195616 58 185 4.0 9.0 0.00 0.00 0.00 57 1012.4
20260501194503 58 189 4.0 7.0 0.00 0.00 0.00 58 1012.3
20260501193603 58 176 4.0 7.0 0.00 0.00 0.00 55 1012.5
20260501192703 58 175 4.0 9.0 0.00 0.00 0.00 58 1012.4
20260501191803 58 190 5.0 9.0 0.00 0.00 0.00 59 1012.5
20260501190903 60 199 5.0 11.0 0.00 0.00 0.00 55 1012.7
20260501190004 62 213 4.0 11.0 0.00 0.00 0.00 45 1012.6
20260501185403 62 207 4.0 9.0 0.00 0.00 0.00 47 1012.6
20260501184504 62 211 4.0 11.0 0.00 0.00 0.00 44 1012.8
20260501183816 61 200 4.0 9.0 0.00 0.00 0.00 45 1013.0
20260501182703 61 211 4.0 11.0 0.00 0.00 0.00 46 1013.1
20260501181803 60 201 5.0 11.0 0.00 0.00 0.00 47 1013.0
20260501180903 59 202 5.0 10.0 0.00 0.00 0.00 48 1013.0
20260501180003 60 209 4.0 8.0 0.00 0.00 0.00 48 1013.1
20260501175403 59 200 4.0 8.0 0.00 0.00 0.00 48 1013.1
20260501174503 59 201 4.0 9.0 0.00 0.00 0.00 48 1013.2
20260501173817 59 207 4.0 9.0 0.00 0.00 0.00 47 1013.4
20260501172703 58 204 5.0 10.0 0.00 0.00 0.00 50 1013.3
20260501171803 58 201 5.0 9.0 0.00 0.00 0.00 53 1013.3
20260501170904 58 206 5.0 9.0 0.00 0.00 0.00 53 1013.5
20260501170216 58 203 5.0 13.0 0.00 0.00 0.00 52 1013.6
20260501165403 58 203 5.0 13.0 0.00 0.00 0.00 53 1013.3
20260501164503 57 194 4.0 9.0 0.00 0.00 0.00 56 1013.5
20260501163818 58 200 4.0 8.0 0.00 0.00 0.00 49 1013.4
20260501162017 60 279 3.0 10.0 0.00 0.00 0.00 37 1013.7
20260501160903 61 308 2.0 8.0 0.00 0.00 0.00 38 1014.0
20260501160004 60 315 2.0 7.0 0.00 0.00 0.00 37 1014.2